Regional Weather Roundup
Issued by NWS

Home | Current Version | Previous Version | Text Only | Print | Product List | Glossary On
Versions: 1 2 3 4 5 6 7 8 9 10 11 12 13 14 15 16 17 18 19 20 21 22 23 24 25 26 27 28 29 30 31 32 33 34 35 36 37 38 39 40 41 42 43 44 45 46 47 48 49 50
000
ASUS44 KLIX 040412
RWRLA
LOUISIANA WEATHER ROUNDUP
NATIONAL WEATHER SERVICE NEW ORLEANS LA
1100 PM CDT SUN MAY 03 2015

NOTE: "FAIR" INDICATES FEW OR NO CLOUDS BELOW 12,000 FEET WITH NO
      SIGNIFICANT WEATHER AND/OR OBSTRUCTIONS TO VISIBILITY.
      SKY/WX - SKY CONDITION AND SIGNIFICANT WEATHER.
      TMP - AIR TEMPERATURE.    DP   - DEWPOINT TEMPERATURE.
      RH  - RELATIVE HUMIDITY.  PRES - PRESSURE.
      HX  - HEAT INDEX.         WCI  - WIND CHILL INDEX.

*  THESE STATIONS ARE NOT NWS OR FAA STATIONS AND ARE NOT UNDER
   NWS QUALITY CONTROL.

LAZ040-048-061>063-065-066-069-040500-
SOUTHEAST LOUISIANA

CITY           SKY/WX    TMP DP  RH WIND       PRES   REMARKS
N.O. AUDUBON     N/A     70  58  67 MISG        N/A
N.O. INTL ARPT PTCLDY    69  55  60 SE5       30.13R
N.O. LAKEFRONT CLEAR     71  58  63 SE7       30.13S
SLIDELL        CLEAR     61  58  90 CALM      30.13R
BATON ROUGE    CLEAR     64  58  80 E6        30.12R
BOOTHVILLE     CLEAR     69  63  81 CALM      30.13R
BELLE CHASSE   CLEAR     61  57  87 CALM      30.12S
BOGALUSA*        N/A     61  55  82 CALM      30.16R
GALLIANO*      CLEAR     69  58  67 CALM      30.13R
NEW ROADS*     CLOUDY    71  58  63 SE5       30.11S
GONZALES*      FAIR      64  62  93 CALM      30.11S
HAMMOND*       CLEAR     64  55  72 E3        30.15S
HOUMA*         CLEAR     62  58  90 CALM      30.12S
PORT FOURCHON* CLEAR     73  57  56 SE9G15    30.15S

$$

LAZ041-044-053-054-040500-
SOUTHWEST LOUISIANA

CITY           SKY/WX    TMP DP  RH WIND       PRES   REMARKS
LAKE CHARLES   CLEAR     63  59  87 SE3       30.08R
LAFAYETTE      MOCLDY    70  63  78 CALM      30.10R
PATTERSON      CLEAR    N/A N/A N/A SE5       30.12S
SALT POINT       N/A     67  63  87 CALM      30.10R
NEW IBERIA     CLEAR     70  62  76 E5        30.11R
CHENAULT AIRPK CLEAR     64  59  82 SE3       30.09R

$$

LAZ027-028-040500-
CENTRAL LOUISIANA

CITY           SKY/WX    TMP DP  RH WIND       PRES   REMARKS
FORT POLK      CLEAR     62  58  86 E2        30.07S
ALEXANDRIA INT CLEAR     65  60  84 CALM      30.06S
ALEXANDRIA     CLEAR     64  60  87 CALM      30.08S

$$

LAZ001-002-040500-
NORTHWEST LOUISIANA

CITY           SKY/WX    TMP DP  RH WIND       PRES   REMARKS
SHREVEPORT     CLEAR     66  57  72 CALM      30.03S
BARKSDALE AFB  CLEAR     63  57  81 SE3       30.04R
DTN SHREVEPORT CLEAR     68  56  65 E6        30.04S

$$

LAZ014-016-040500-
NORTHEAST LOUISIANA

CITY           SKY/WX    TMP DP  RH WIND       PRES   REMARKS
MONROE         CLEAR     65  60  84 VRB3      30.08R
TALLULAH       CLEAR     65  59  81 SE3       30.09R

$$



USA.gov is the U.S. government's official web portal to all federal, state and local government web resources and services.